• In Deutschland
  • Länderverzeichnis
  • Für 7 Tage
  • Wassertemperatur
  • Satellitenkarten
  • Wetterkarte
  • Widgets
  • user-avatar
    Anmelden

    Stündliche Wetter Crailsheim

    Heute, 17 Oktober, Dienstag

    Zeit Temperatur Niederschläge Wind Luftdruck Luftfeuchtigkeit
    00:00 +13°C° 0 mm 2 m/S 730 mmHg 80%
    01:00 +14°C° 0 mm 2 m/S 730 mmHg 76%
    02:00 +13°C° 0 mm 2 m/S 730 mmHg 76%
    03:00 +13°C° 0 mm 2 m/S 730 mmHg 76%
    04:00 +13°C° 0 mm 1 m/S 730 mmHg 75%
    05:00 +12°C° 0 mm 1 m/S 730 mmHg 76%
    06:00 +12°C° 0 mm 1 m/S 729 mmHg 77%
    07:00 +11°C° 0 mm 1 m/S 730 mmHg 73%
    08:00 +13°C° 0 mm 1 m/S 730 mmHg 68%
    09:00 +15°C° 0 mm 1 m/S 730 mmHg 63%
    10:00 +18°C° 0 mm 1 m/S 730 mmHg 58%
    11:00 +20°C° 0 mm 1 m/S 729 mmHg 55%
    12:00 +21°C° 0 mm 1 m/S 729 mmHg 52%
    13:00 +20°C° 0 mm 0 m/S 729 mmHg 49%
    14:00 +20°C° 0 mm 0 m/S 728 mmHg 52%
    15:00 +20°C° 0 mm 0 m/S 728 mmHg 56%
    16:00 +19°C° 0 mm 0 m/S 727 mmHg 60%
    17:00 +17°C° 0 mm 0 m/S 727 mmHg 66%
    18:00 +15°C° 0 mm 0 m/S 727 mmHg 71%
    19:00 +14°C° 0 mm 1 m/S 726 mmHg 77%
    20:00 +13°C° 0 mm 1 m/S 726 mmHg 78%
    21:00 +13°C° 0 mm 1 m/S 726 mmHg 80%
    22:00 +12°C° 0 mm 1 m/S 726 mmHg 81%
    23:00 +12°C° 0 mm 1 m/S 726 mmHg 82%

    Morgen, 18 Oktober, Mittwoch

    Zeit Temperatur Niederschläge Wind Luftdruck Luftfeuchtigkeit
    00:00 +12°C° 0 mm 1 m/S 726 mmHg 82%
    01:00 +12°C° 0 mm 1 m/S 726 mmHg 82%
    02:00 +11°C° 0 mm 1 m/S 725 mmHg 82%
    03:00 +11°C° 0 mm 1 m/S 725 mmHg 82%
    04:00 +11°C° 0 mm 1 m/S 725 mmHg 81%
    05:00 +11°C° 0 mm 1 m/S 725 mmHg 81%
    06:00 +10°C° 0 mm 1 m/S 725 mmHg 80%
    07:00 +10°C° 0 mm 1 m/S 724 mmHg 79%
    08:00 +12°C° 0 mm 1 m/S 724 mmHg 72%
    09:00 +15°C° 0 mm 1 m/S 725 mmHg 66%
    10:00 +18°C° 0 mm 1 m/S 725 mmHg 59%
    11:00 +19°C° 0 mm 1 m/S 724 mmHg 55%
    12:00 +20°C° 0 mm 1 m/S 724 mmHg 51%
    13:00 +21°C° 0 mm 1 m/S 724 mmHg 46%
    14:00 +21°C° 0 mm 1 m/S 724 mmHg 50%
    15:00 +20°C° 0 mm 1 m/S 724 mmHg 54%
    16:00 +20°C° 0 mm 1 m/S 723 mmHg 58%
    17:00 +18°C° 0 mm 1 m/S 723 mmHg 62%
    18:00 +15°C° 0 mm 1 m/S 723 mmHg 67%
    19:00 +12°C° 0 mm 0 m/S 723 mmHg 71%
    20:00 +12°C° 0 mm 1 m/S 723 mmHg 72%
    21:00 +12°C° 0 mm 1 m/S 723 mmHg 73%
    22:00 +12°C° 0 mm 1 m/S 723 mmHg 73%
    23:00 +11°C° 0 mm 1 m/S 723 mmHg 74%

    übermorgen, 19 Oktober, Donnerstag

    Zeit Temperatur Niederschläge Wind Luftdruck Luftfeuchtigkeit
    00:00 +11°C° 0 mm 1 m/S 723 mmHg 75%
    01:00 +11°C° 0 mm 1 m/S 723 mmHg 76%
    02:00 +11°C° 0 mm 1 m/S 723 mmHg 77%
    03:00 +10°C° 0 mm 1 m/S 723 mmHg 77%
    04:00 +10°C° 0 mm 1 m/S 723 mmHg 78%
    05:00 +10°C° 0 mm 1 m/S 723 mmHg 78%
    06:00 +10°C° 0 mm 1 m/S 723 mmHg 78%
    07:00 +10°C° 0 mm 1 m/S 723 mmHg 77%
    08:00 +12°C° 0 mm 2 m/S 723 mmHg 72%
    09:00 +14°C° 0 mm 2 m/S 723 mmHg 67%
    10:00 +16°C° 0 mm 2 m/S 723 mmHg 62%
    11:00 +17°C° 0 mm 2 m/S 723 mmHg 59%
    12:00 +18°C° 0 mm 2 m/S 723 mmHg 55%
    13:00 +20°C° 0 mm 2 m/S 723 mmHg 52%
    14:00 +19°C° 0 mm 2 m/S 723 mmHg 56%
    15:00 +19°C° 0 mm 2 m/S 723 mmHg 60%
    16:00 +20°C° 0 mm 1 m/S 723 mmHg 64%
    17:00 +18°C° 0 mm 1 m/S 723 mmHg 69%
    18:00 +15°C° 0 mm 1 m/S 723 mmHg 73%
    19:00 +13°C° 0 mm 1 m/S 723 mmHg 78%
    20:00 +13°C° 0 mm 2 m/S 723 mmHg 79%
    21:00 +12°C° 0 mm 2 m/S 723 mmHg 80%
    22:00 +12°C° 0 mm 2 m/S 723 mmHg 81%
    23:00 +12°C° 0 mm 2 m/S 723 mmHg 82%

    20 Oktober, Freitag

    Zeit Temperatur Niederschläge Wind Luftdruck Luftfeuchtigkeit
    00:00 +10°C° 0 mm 2 m/S 723 mmHg 82%
    01:00 +10°C° 0 mm 2 m/S 723 mmHg 82%
    02:00 +10°C° 0 mm 2 m/S 723 mmHg 83%
    03:00 +10°C° 0 mm 2 m/S 723 mmHg 83%
    04:00 +10°C° 0 mm 2 m/S 723 mmHg 83%
    05:00 +10°C° 0 mm 2 m/S 723 mmHg 83%
    06:00 +9°C° 0 mm 2 m/S 724 mmHg 83%
    07:00 +9°C° 0 mm 2 m/S 724 mmHg 83%
    08:00 +12°C° 0 mm 2 m/S 724 mmHg 76%
    09:00 +14°C° 0 mm 2 m/S 725 mmHg 69%
    10:00 +16°C° 0 mm 2 m/S 725 mmHg 62%
    11:00 +18°C° 0 mm 2 m/S 725 mmHg 59%
    12:00 +19°C° 0 mm 2 m/S 725 mmHg 55%
    13:00 +20°C° 0 mm 3 m/S 725 mmHg 52%
    14:00 +20°C° 0 mm 2 m/S 725 mmHg 56%
    15:00 +19°C° 0 mm 2 m/S 725 mmHg 60%
    16:00 +20°C° 0 mm 1 m/S 725 mmHg 64%
    17:00 +18°C° 0 mm 1 m/S 725 mmHg 69%
    18:00 +16°C° 0 mm 1 m/S 725 mmHg 73%
    19:00 +14°C° 0 mm 1 m/S 725 mmHg 77%
    20:00 +14°C° 0 mm 2 m/S 725 mmHg 78%
    21:00 +13°C° 0 mm 2 m/S 725 mmHg 78%
    22:00 +13°C° 0 mm 2 m/S 725 mmHg 79%
    23:00 +13°C° 0 mm 2 m/S 725 mmHg 78%

    21 Oktober, Samstag

    Zeit Temperatur Niederschläge Wind Luftdruck Luftfeuchtigkeit
    00:00 +13°C° 0 mm 2 m/S 725 mmHg 77%
    01:00 +12°C° 0 mm 2 m/S 725 mmHg 77%
    02:00 +12°C° 0 mm 2 m/S 724 mmHg 76%
    03:00 +12°C° 0 mm 2 m/S 724 mmHg 75%
    04:00 +12°C° 0 mm 2 m/S 724 mmHg 74%
    05:00 +12°C° 0 mm 2 m/S 724 mmHg 75%
    06:00 +12°C° 0 mm 2 m/S 724 mmHg 75%
    07:00 +10°C° 0 mm 2 m/S 724 mmHg 75%
    08:00 +13°C° 0 mm 3 m/S 724 mmHg 70%
    09:00 +16°C° 0 mm 3 m/S 724 mmHg 65%
    10:00 +18°C° 0 mm 3 m/S 724 mmHg 61%
    11:00 +19°C° 0 mm 4 m/S 724 mmHg 58%
    12:00 +19°C° 0 mm 4 m/S 724 mmHg 56%
    13:00 +20°C° 0 mm 5 m/S 724 mmHg 53%
    14:00 +19°C° 0,2 mm 5 m/S 724 mmHg 62%
    15:00 +17°C° 0,2 mm 4 m/S 724 mmHg 71%
    16:00 +15°C° 0,2 mm 4 m/S 724 mmHg 80%
    17:00 +14°C° 0,3 mm 3 m/S 725 mmHg 84%
    18:00 +13°C° 0,3 mm 3 m/S 725 mmHg 88%
    19:00 +13°C° 0,3 mm 3 m/S 725 mmHg 93%
    20:00 +12°C° 0,6 mm 3 m/S 725 mmHg 93%
    21:00 +13°C° 0,6 mm 2 m/S 726 mmHg 92%
    22:00 +13°C° 0,6 mm 2 m/S 726 mmHg 92%
    23:00 +13°C° 0,4 mm 2 m/S 726 mmHg 92%

    22 Oktober, Sonntag

    Zeit Temperatur Niederschläge Wind Luftdruck Luftfeuchtigkeit
    00:00 +12°C° 0,4 mm 2 m/S 726 mmHg 93%
    01:00 +12°C° 0,4 mm 2 m/S 726 mmHg 93%
    02:00 +10°C° 0,6 mm 3 m/S 726 mmHg 93%
    03:00 +10°C° 0,6 mm 3 m/S 726 mmHg 93%
    04:00 +10°C° 0,6 mm 3 m/S 726 mmHg 93%
    05:00 +9°C° 0,5 mm 3 m/S 726 mmHg 93%
    06:00 +9°C° 0,5 mm 3 m/S 726 mmHg 93%
    07:00 +8°C° 0,5 mm 3 m/S 726 mmHg 93%
    08:00 +9°C° 0,2 mm 3 m/S 726 mmHg 90%
    09:00 +9°C° 0,2 mm 3 m/S 727 mmHg 87%
    10:00 +8°C° 0,2 mm 4 m/S 727 mmHg 84%
    11:00 +8°C° 0,1 mm 4 m/S 727 mmHg 81%
    12:00 +10°C° 0,1 mm 4 m/S 727 mmHg 78%
    13:00 +10°C° 0,1 mm 4 m/S 727 mmHg 74%
    14:00 +10°C° 0 mm 4 m/S 727 mmHg 73%
    15:00 +10°C° 0 mm 4 m/S 728 mmHg 72%
    16:00 +10°C° 0 mm 4 m/S 728 mmHg 71%
    17:00 +8°C° 0 mm 4 m/S 728 mmHg 75%
    18:00 +8°C° 0 mm 3 m/S 728 mmHg 78%
    19:00 +7°C° 0 mm 3 m/S 729 mmHg 82%
    20:00 +5°C° 0 mm 3 m/S 729 mmHg 83%
    21:00 +5°C° 0 mm 3 m/S 729 mmHg 85%
    22:00 +5°C° 0 mm 3 m/S 729 mmHg 86%
    23:00 +5°C° 0 mm 3 m/S 730 mmHg 86%
    Mehr zeigen